sat.trackr.live / text

‹ back to catalog

STARLINK-35171

NORAD 65605 · 2025-207P

PAYLOAD ACTIVE UNKNOWN

§ Identity

Operator
Country
US
Launch date
2025-09-13
Launch site
AFWTR
Launch vehicle
Mass (kg)
RCS (m²)

Purposes: comms

External: N2YO · Heavens-Above · Gunter

§ Orbital elements

Epoch: 2026-09-20T22:00:03.000096Z

Period
93.91 min
Inclination
97.2855°
Eccentricity
0.0002011
Mean motion
15.33440636 rev/d
Perigee alt
464.2 km
Apogee alt
466.9 km
Semi-major
6,843.7 km
B*
-4.3885e-4
RAAN
326.4988°
Arg perigee
89.6488°
Mean anomaly
340.8837°
Rev number
579

§ Raw data

STARLINK-351711 65605U 25207P   26263.91670139 -.00014215  00000+0 -43885-3 0  99982 65605  97.2855 326.4988 0002011  89.6488 340.8837 15.33440636  5796

JSON: /api/v1/satellites/65605 · /tle

For live sub-satellite position, see the globe view (requires WebGL).

§ Visibility from observer

Set your observer location to see the next 7 days of passes ≥ 10°. The values pass through the URL so the page stays shareable.

No JS? Fill the form by hand. The geolocation button needs JavaScript.